Wind_Speed
18 18 17 18 17 16 15 15 15 17 16 13 10 7 7 7 5 5 4 6 7 10 14 15 14 17 23 26 27 27 26 24 23 24 25 26 27 27 25 21 21 23 22 20 19 23 29 21 20 20 20 24 24 25
17 16 16 15 15 15 15 15 16 17 16 14 11 8 7 6 6 5 4 4 9 10 13 15 15 15 18 21 24 28 28 26 26 24 25 25 28 27 27 26 24 25 25 25 25 23 22 21 22 24 26 28 28 29
16 15 15 15 16 17 17 18 18 18 17 14 12 9 7 7 7 6 6 5 6 8 12 13 15 17 18 20 21 24 25 26 28 26 26 24 25 21 23 27 26 25 25 29 29 31 30 28 27 27 28 28 27 26
15 15 15 17 18 18 19 20 20 19 17 14 11 9 8 7 7 7 7 7 7 7 8 12 14 16 17 18 20 22 24 26 27 28 28 28 27 27 26 26 27 26 26 27 28 29 29 29 31 31 31 29 29 28
17 18 19 20 21 22 22 21 20 18 16 15 11 8 8 8 8 8 8 9 10 9 7 7 9 12 15 17 17 18 19 21 22 24 26 29 29 31 30 29 28 28 29 29 29 29 31 31 31 31 30 30 30 32
19 19 19 20 20 21 21 20 18 17 15 14 12 9 9 8 8 9 9 10 10 12 11 10 9 9 11 12 14 17 19 20 21 21 22 24 27 32 33 32 32 33 34 35 34 33 34 34 33 32 33 34 36 35
17 17 17 18 19 19 19 19 19 17 16 14 13 11 10 10 10 10 10 9 11 12 14 16 15 13 14 14 14 14 15 16 18 19 21 23 27 32 36 38 36 36 37 37 36 35 35 36 34 36 37 37 37 38
17 18 18 18 18 19 19 19 19 18 16 15 13 12 11 11 11 12 12 12 13 14 15 16 17 17 16 16 16 16 16 17 18 20 22 25 27 30 32 32 33 34 36 38 38 37 35 35 37 40 41 38 38 38
17 17 19 19 20 20 20 20 19 18 16 14 14 12 12 13 13 12 13 14 14 15 16 16 18 19 19 19 19 19 19 19 20 20 21 23 24 27 28 30 31 33 34 36 38 38 37 37 39 38 39 42 41 42
18 20 21 20 19 18 19 20 20 19 17 15 14 13 13 14 15 15 14 14 15 15 16 17 18 20 21 21 22 22 22 22 22 22 22 22 23 25 27 28 30 31 33 33 34 35 35 36 37 37 38 39 44 41
19 19 20 19 17 18 18 18 19 19 19 18 16 15 15 15 15 15 14 14 15 15 16 17 18 20 21 22 23 23 23 23 23 23 23 23 24 26 28 30 32 33 32 34 38 36 34 35 36 35 38 41 38 34
19 19 19 19 17 17 19 20 20 19 19 19 18 17 16 16 15 15 14 14 15 15 15 15 17 19 20 21 21 21 22 23 22 22 22 23 24 27 28 29 26 25 24 24 24 30 30 25 37 31 36 43 41 32
21 19 18 17 16 18 21 21 21 21 20 20 19 18 17 16 16 16 16 15 15 15 15 17 18 19 19 18 20 21 21 21 21 21 21 21 23 24 25 24 23 21 22 29 24 25 26 29 43 39 37 31 25 22
26 24 22 20 22 23 23 23 24 23 22 20 20 18 17 17 17 18 19 19 18 19 20 19 18 18 18 18 19 20 21 21 21 20 20 21 21 19 17 16 18 16 15 13 10 20 20 23 27 23 21 20 19 22
25 24 26 28 29 30 29 27 26 25 22 20 20 19 19 18 17 17 20 21 22 24 22 19 19 18 18 19 19 19 20 20 20 20 19 16 15 13 12 12 11 12 10 12 12 17 15 18 20 17 19 21 20 20
27 29 30 28 27 29 28 28 27 26 22 20 20 21 20 20 20 21 22 23 23 24 21 17 20 19 18 17 17 18 19 19 15 18 16 15 15 13 13 12 10 9 9 7 12 13 17 24 21 16 16 18 18 19
32 31 32 32 30 29 29 28 28 26 24 22 20 22 22 21 20 20 19 20 28 26 19 18 20 19 18 17 16 18 17 16 17 15 15 16 15 18 18 17 14 11 11 11 11 8 8 12 15 17 18 20 20 21
38 36 34 33 32 32 32 31 30 27 24 24 22 22 21 20 18 19 19 18 17 17 18 20 18 17 17 15 12 13 15 17 18 17 16 16 16 15 12 13 15 15 14 13 13 13 14 17 19 20 19 19 21 21
41 40 37 35 34 33 30 28 27 25 24 23 23 22 20 20 23 21 19 21 22 18 18 18 18 14 9 10 12 13 12 13 13 16 17 14 14 12 14 13 12 14 16 16 17 17 15 14 16 19 23 24 25 24
40 40 38 37 34 30 27 24 24 24 22 21 21 21 22 22 20 21 16 12 15 17 18 16 14 14 13 13 14 14 12 12 12 12 13 15 15 14 14 14 13 14 15 14 13 14 12 13 14 14 15 16 18 19
37 34 33 32 31 27 23 21 22 21 21 20 21 21 19 15 12 12 14 16 17 17 15 13 13 12 11 11 11 11 11 12 13 14 14 13 13 15 14 14 14 15 13 11 10 9 10 11 11 13 13 12 11 12
31 28 26 25 24 22 21 19 19 20 21 22 22 24 20 11 13 14 15 15 12 12 11 10 11 12 13 12 12 13 13 12 12 13 13 13 14 14 16 17 18 17 13 11 10 11 12 14 13 12 11 9 8 9
25 22 20 17 16 16 16 16 17 22 23 19 13 8 9 12 14 12 9 9 10 10 10 11 11 10 10 10 8 7 7 8 10 12 13 12 13 15 20 21 18 14 12 11 10 9 5 5 7 8 5 6 6 7
18 16 13 11 10 11 12 13 10 4 4 5 7 9 9 8 8 8 7 9 10 10 10 9 9 9 7 6 7 6 6 7 8 8 8 10 11 11 10 8 12 11 8 7 5 4 4 6 6 7 7 7 9 9
12 10 7 7 8 10 12 9 5 7 7 5 5 6 8 7 6 7 7 9 8 7 6 7 6 7 7 6 5 7 8 7 7 6 4 2 3 6 9 9 7 6 4 3 2 1 3 4 6 8 9 9 5 3
7 6 6 6 9 10 7 2 4 4 5 5 5 6 7 7 6 5 5 5 2 1 1 2 0 1 1 2 4 3 2 2 6 7 6 8 9 10 10 10 9 7 5 2 3 5 9 12 12 10 7 4 4 6
6 4 5 9 7 2 2 1 2 3 3 4 6 6 5 3 2 1 2 2 1 1 1 1 2 1 2 1 4 5 5 9 14 13 9 8 7 7 6 5 5 5 6 7 7 4 5 6 6 6 4 4 6 7
1 4 4 5 7 5 4 5 5 6 6 7 7 7 7 7 5 4 4 2 0 2 3 3 1 2 3 5 5 7 10 8 9 7 6 6 5 5 5 6 8 9 11 13 12 9 5 4 4 4 5 6 8 10
4 7 11 9 8 8 8 9 9 10 11 10 9 7 8 8 7 5 3 3 2 1 3 5 3 2 6 11 15 13 11 8 5 3 2 3 4 5 7 9 13 17 17 15 11 7 3 3 5 6 8 10 12 14
13 13 11 12 11 11 10 10 11 12 13 12 12 10 8 5 4 3 3 2 1 1 3 2 4 8 14 17 12 11 7 3 2 3 4 5 5 6 7 13 18 17 13 11 10 8 6 7 9 11 12 13 14 17
11 11 12 13 12 10 9 9 11 10 10 10 10 9 8 8 8 6 5 2 2 3 2 6 8 9 8 9 7 4 3 4 3 3 4 5 5 7 9 13 15 13 11 9 8 7 7 8 8 9 11 14 17 21
11 12 12 11 10 9 9 10 8 8 8 9 7 7 9 10 10 7 6 3 0 2 4 10 8 7 6 5 4 3 0 1 1 3 4 5 6 10 13 15 16 13 12 12 10 9 8 10 12 15 18 21 24 26
11 11 10 10 8 7 6 7 7 7 6 7 8 8 6 6 8 7 6 3 1 5 9 11 9 7 4 3 3 2 0 2 3 5 6 7 9 11 13 16 15 13 11 10 11 13 15 17 20 22 24 25 26 28
Wind_Direction
318 319 323 327 332 334 334 335 335 333 330 325 314 297 298 305 308 325 282 237 226 220 222 231 224 220 220 222 226 227 232 237 243 248 250 253 254 257 259 264 253 254 252 239 240 241 239 233 237 245 248 249 247 245
320 318 322 328 333 337 338 336 337 337 331 322 314 298 281 288 293 291 298 275 238 235 230 232 232 228 227 228 230 233 236 239 245 252 253 252 252 253 253 251 257 255 257 251 249 253 254 249 247 246 252 255 254 253
320 320 320 322 327 329 330 330 329 332 332 322 314 300 285 275 280 279 274 276 268 252 244 241 237 235 234 237 240 241 239 239 245 248 249 251 245 244 248 248 250 249 250 252 255 254 252 250 246 244 246 253 255 258
318 317 316 321 324 325 326 326 323 323 325 322 311 297 289 274 270 275 276 264 260 265 254 245 242 239 240 241 244 248 252 255 255 254 253 253 248 249 253 256 255 255 256 253 252 255 257 256 255 254 253 257 258 257
315 315 313 314 317 319 320 320 319 318 318 318 308 296 285 273 270 276 276 270 257 252 247 246 245 247 249 252 253 253 253 256 259 259 253 250 252 255 254 256 259 262 260 258 258 258 259 258 258 259 259 257 257 260
321 317 316 318 319 320 321 320 319 318 314 315 306 292 284 267 266 286 281 267 261 250 244 241 238 243 251 250 249 253 258 259 258 259 260 259 257 257 258 260 262 263 265 264 262 258 256 256 256 257 256 257 256 261
333 329 325 324 325 325 323 324 323 317 311 309 306 290 280 265 267 281 283 277 266 257 249 246 246 248 253 258 263 266 268 268 267 267 265 260 257 256 259 261 263 264 264 263 261 260 257 257 258 258 257 257 259 262
327 328 328 329 330 331 330 329 325 322 314 306 302 291 281 274 268 275 280 281 275 266 261 252 249 253 261 260 260 263 264 268 271 270 267 265 265 265 265 266 265 262 260 260 260 259 257 253 256 257 257 258 259 261
331 331 331 329 329 330 331 334 331 328 322 311 301 292 283 275 276 275 280 283 280 272 265 260 254 253 260 261 264 268 271 274 276 277 275 274 275 273 272 270 268 265 262 260 258 257 256 255 252 258 259 255 255 258
325 327 329 326 326 328 332 332 333 331 329 325 313 299 290 282 274 274 278 280 279 275 270 266 262 259 260 262 266 269 272 275 275 278 280 281 279 281 283 281 278 275 269 261 254 253 252 253 252 256 259 258 257 256
320 325 327 328 325 324 327 332 331 330 328 325 318 308 298 291 280 275 278 278 278 277 274 271 267 265 262 263 265 269 270 271 274 276 280 284 287 289 289 287 286 282 276 264 258 249 250 250 249 253 258 235 249 256
316 319 323 325 326 327 327 328 327 325 322 321 316 311 304 296 286 280 279 281 281 281 280 277 273 271 270 269 269 268 270 273 274 277 280 285 290 293 293 298 296 281 285 268 255 241 238 259 245 243 238 246 261 246
316 315 313 317 320 326 329 326 323 322 319 318 314 309 304 298 288 282 282 281 281 284 287 286 282 278 275 273 273 275 275 274 275 275 278 282 288 292 294 304 307 286 279 258 254 237 250 253 246 239 249 246 252 255
311 309 308 306 305 306 309 311 312 311 313 315 315 309 305 300 288 283 280 279 281 285 287 285 283 281 279 277 277 276 275 274 274 274 273 282 288 296 304 299 304 284 261 243 271 244 230 223 217 227 223 238 252 260
314 311 307 303 301 301 302 301 304 306 307 309 307 306 305 297 291 288 286 284 285 286 281 281 281 281 281 281 279 277 276 276 276 274 278 275 275 283 292 295 298 290 274 271 254 228 214 207 206 213 236 253 259 263
307 306 305 304 302 298 295 297 299 301 300 303 299 297 298 295 289 281 280 283 285 287 276 276 286 286 285 282 280 278 275 274 271 272 267 262 264 276 279 274 279 287 284 297 272 237 236 213 221 234 252 257 257 261
300 298 299 299 298 294 290 292 294 294 293 293 295 293 294 296 295 286 280 276 281 283 272 277 289 287 288 285 279 278 275 271 266 265 263 261 274 280 273 252 258 276 280 273 273 273 266 260 240 244 252 256 261 264
299 297 294 293 293 290 286 286 287 288 288 289 292 291 295 292 293 289 287 283 285 288 286 288 290 291 288 281 267 263 262 260 259 259 263 266 274 272 280 261 263 275 284 285 282 272 259 262 264 263 261 263 267 269
294 291 289 287 288 287 285 283 282 281 285 288 289 292 290 285 290 287 275 272 277 280 292 294 292 283 271 256 254 264 264 267 265 267 265 267 266 265 266 272 282 289 291 288 289 285 283 267 262 266 269 271 274 271
291 288 283 280 280 278 277 276 276 279 283 283 287 291 291 290 285 278 277 286 287 288 288 284 273 266 262 263 263 263 260 266 262 276 273 265 268 272 276 274 281 293 299 298 291 281 271 274 276 276 276 275 274 269
298 296 291 286 282 279 273 274 274 277 279 281 284 290 289 284 266 273 285 289 287 285 280 273 264 257 262 267 263 257 260 264 268 267 285 282 280 282 277 284 283 298 303 292 289 280 273 277 283 286 278 274 276 280
301 295 291 286 283 281 276 275 276 280 282 285 283 288 280 264 279 284 286 286 282 270 267 260 254 260 263 270 269 260 256 264 274 279 279 278 275 272 276 283 280 289 283 276 287 282 281 278 279 282 270 271 273 276
303 296 289 283 280 275 274 278 284 286 287 287 276 253 266 277 282 286 281 270 262 268 266 265 264 268 268 265 257 268 268 274 279 276 273 278 278 275 274 270 262 260 257 268 280 283 287 265 262 259 279 298 297 276
305 297 290 281 270 268 278 284 284 282 299 283 283 283 283 283 283 280 274 271 273 269 265 261 263 267 278 273 262 264 282 288 285 290 288 293 302 312 288 256 205 212 244 253 259 277 275 273 272 260 270 304 304 288
308 306 288 276 279 282 269 272 270 305 305 303 297 293 292 295 288 283 280 272 266 270 277 275 274 271 264 262 265 280 289 279 265 261 260 341 10 48 78 107 141 168 176 174 158 198 261 272 282 276 284 294 260 246
300 279 274 291 297 280 266 290 305 295 305 312 314 309 304 300 295 290 270 263 280 268 234 332 196 155 228 290 308 298 123 145 155 147 133 104 91 98 103 96 82 66 49 11 300 267 241 258 272 270 256 246 276 290
275 263 285 304 305 114 97 4 351 6 1 355 346 345 349 348 332 266 232 178 93 5 4 79 103 331 333 71 133 138 108 115 115 109 106 107 102 85 73 61 51 23 4 357 341 308 270 275 280 276 267 270 279 287
317 323 355 95 119 109 96 78 56 50 43 38 47 61 60 64 70 93 119 81 94 47 120 116 40 65 112 145 147 147 149 141 121 107 71 64 68 43 25 6 1 356 348 344 339 327 306 270 239 243 272 289 300 309
98 121 128 125 116 110 92 74 71 69 62 55 55 63 65 72 74 83 80 66 50 102 140 113 70 113 139 139 137 132 126 113 97 103 68 66 44 16 9 8 0 352 348 346 347 341 320 282 265 277 295 302 306 306
121 123 126 123 118 107 92 81 69 65 60 56 52 49 50 43 28 1 347 324 301 128 140 131 62 134 137 140 119 113 106 87 91 106 85 44 16 7 4 0 358 355 357 352 348 340 327 313 301 292 290 293 296 299
125 122 122 123 118 105 91 75 67 52 47 41 38 32 38 44 35 29 33 50 96 142 152 147 133 130 145 167 146 117 61 62 57 57 44 19 356 345 352 358 357 358 357 353 340 330 317 304 295 292 292 298 302 305
130 134 132 129 120 97 88 79 62 40 31 25 26 24 25 31 31 32 22 16 94 188 185 159 149 147 145 162 184 191 58 19 3 9 4 349 342 341 342 348 349 347 343 342 344 342 333 322 316 313 312 311 311 311
141 145 141 136 120 97 74 55 35 16 10 2 353 347 336 333 344 354 13 23 79 152 155 156 152 146 135 162 179 189 11 356 358 354 345 339 335 332 332 337 339 337 337 334 330 327 323 318 315 312 312 311 311 312
Height
5800 5798 5795 5793 5790 5787 5785 5783 5781 5778 5775 5773 5772 5771 5771 5770 5770 5769 5769 5770 5772 5773 5774 5776 5779 5782 5785 5789 5792 5797 5800 5802 5805 5806 5808 5810 5812 5813 5816 5818 5819 5820 5821 5823 5824 5825 5830 5833 5833 5834 5836 5836 5839 5841
5797 5795 5793 5790 5788 5786 5783 5781 5779 5776 5773 5771 5769 5769 5768 5768 5768 5768 5768 5768 5769 5770 5772 5773 5775 5778 5781 5784 5787 5789 5793 5795 5797 5799 5801 5802 5805 5806 5808 5811 5812 5813 5814 5816 5818 5818 5820 5822 5824 5826 5827 5828 5830 5831
5794 5792 5790 5788 5786 5784 5781 5779 5776 5773 5771 5768 5767 5766 5766 5766 5766 5766 5766 5766 5766 5767 5768 5770 5772 5774 5776 5778 5780 5782 5785 5788 5791 5793 5794 5795 5797 5799 5801 5803 5804 5805 5807 5808 5809 5810 5811 5813 5816 5817 5818 5818 5819 5821
5791 5789 5787 5785 5782 5780 5778 5775 5772 5770 5768 5765 5764 5762 5762 5762 5763 5763 5763 5763 5764 5765 5765 5766 5767 5768 5771 5773 5775 5776 5778 5780 5782 5784 5785 5787 5790 5791 5793 5794 5795 5797 5799 5800 5801 5802 5803 5804 5805 5807 5808 5809 5810 5811
5788 5786 5783 5781 5778 5776 5773 5771 5768 5766 5764 5762 5761 5760 5759 5759 5760 5760 5760 5760 5761 5763 5763 5763 5763 5764 5766 5767 5769 5771 5772 5773 5774 5775 5776 5778 5780 5781 5783 5785 5787 5788 5789 5791 5792 5793 5794 5795 5796 5797 5799 5799 5800 5801
5784 5782 5780 5777 5774 5771 5769 5766 5764 5762 5761 5759 5758 5757 5756 5756 5756 5756 5757 5757 5757 5758 5759 5760 5761 5761 5762 5763 5764 5764 5765 5766 5768 5769 5769 5770 5771 5772 5773 5776 5778 5778 5779 5780 5781 5783 5783 5784 5786 5787 5789 5790 5790 5791
5782 5779 5776 5773 5771 5768 5765 5762 5760 5758 5756 5755 5754 5754 5753 5753 5753 5753 5753 5753 5753 5753 5754 5755 5756 5757 5758 5759 5759 5760 5760 5761 5761 5762 5762 5763 5764 5764 5764 5765 5767 5768 5768 5769 5770 5771 5773 5774 5775 5776 5776 5778 5779 5780
5779 5777 5774 5771 5768 5765 5762 5759 5756 5754 5752 5751 5750 5750 5749 5749 5749 5749 5749 5748 5748 5749 5749 5750 5751 5752 5752 5753 5754 5754 5755 5755 5755 5755 5755 5755 5755 5754 5754 5755 5756 5756 5756 5756 5757 5759 5761 5762 5762 5763 5765 5768 5768 5769
5776 5774 5771 5768 5765 5762 5759 5756 5753 5751 5748 5747 5746 5745 5745 5745 5745 5745 5744 5744 5743 5745 5744 5744 5745 5746 5746 5746 5747 5747 5747 5748 5748 5747 5747 5747 5746 5744 5744 5744 5744 5744 5744 5744 5745 5746 5748 5750 5751 5753 5754 5755 5757 5758
5774 5771 5768 5765 5762 5759 5756 5754 5751 5748 5745 5743 5742 5741 5740 5740 5739 5740 5739 5739 5738 5738 5738 5738 5739 5739 5741 5740 5740 5741 5740 5740 5740 5740 5739 5738 5737 5736 5735 5734 5733 5732 5732 5732 5733 5734 5736 5737 5740 5742 5743 5744 5744 5747
5770 5767 5764 5761 5758 5756 5753 5750 5747 5745 5743 5741 5739 5738 5736 5735 5734 5734 5734 5734 5733 5733 5733 5732 5732 5732 5733 5733 5733 5733 5732 5731 5731 5732 5731 5730 5728 5727 5725 5723 5721 5719 5719 5719 5719 5722 5724 5726 5727 5730 5731 5731 5734 5737
5766 5763 5760 5758 5755 5752 5750 5747 5744 5742 5739 5737 5735 5733 5732 5731 5730 5730 5729 5728 5727 5727 5727 5726 5726 5726 5726 5725 5725 5725 5725 5724 5724 5723 5723 5722 5720 5718 5715 5713 5710 5708 5707 5705 5707 5712 5715 5714 5715 5719 5722 5723 5726 5727
5762 5759 5756 5754 5751 5749 5746 5743 5740 5737 5735 5733 5731 5729 5727 5726 5725 5724 5724 5723 5722 5721 5720 5720 5719 5719 5718 5719 5718 5717 5717 5717 5717 5716 5716 5715 5713 5711 5708 5706 5703 5700 5699 5698 5698 5700 5704 5706 5708 5709 5712 5714 5716 5717
5758 5755 5752 5749 5746 5744 5742 5739 5735 5733 5730 5728 5725 5724 5722 5720 5719 5719 5718 5717 5717 5716 5714 5713 5713 5712 5711 5711 5711 5710 5710 5710 5709 5709 5708 5707 5706 5704 5703 5700 5699 5696 5694 5694 5693 5693 5695 5697 5700 5703 5704 5707 5710 5711
5750 5747 5745 5743 5740 5737 5735 5732 5730 5727 5724 5722 5720 5718 5717 5715 5713 5712 5712 5711 5710 5709 5707 5706 5706 5706 5705 5704 5704 5703 5703 5702 5702 5701 5701 5701 5700 5700 5699 5696 5694 5693 5691 5690 5689 5691 5692 5693 5696 5698 5700 5702 5704 5705
5744 5740 5737 5734 5732 5729 5727 5725 5722 5720 5717 5715 5713 5711 5710 5708 5707 5705 5703 5703 5703 5701 5700 5700 5699 5698 5698 5697 5697 5696 5696 5695 5696 5695 5695 5695 5695 5695 5694 5694 5692 5691 5689 5687 5689 5689 5690 5691 5692 5694 5695 5696 5697 5698
5733 5731 5727 5724 5722 5720 5717 5716 5714 5712 5710 5708 5706 5704 5702 5701 5699 5697 5696 5695 5694 5694 5694 5693 5693 5692 5691 5691 5690 5689 5689 5689 5689 5689 5689 5689 5689 5689 5688 5688 5688 5688 5687 5687 5687 5687 5686 5686 5687 5689 5690 5691 5691 5693
5722 5720 5717 5714 5711 5709 5708 5705 5703 5703 5701 5700 5698 5696 5695 5693 5692 5691 5690 5688 5687 5688 5688 5687 5686 5685 5685 5684 5684 5684 5682 5682 5683 5683 5684 5684 5684 5684 5683 5684 5684 5684 5684 5683 5684 5684 5683 5683 5683 5684 5684 5686 5686 5686
5708 5705 5703 5701 5699 5698 5696 5695 5694 5693 5692 5691 5690 5689 5688 5687 5685 5683 5682 5681 5680 5681 5681 5681 5680 5679 5679 5678 5679 5678 5678 5678 5678 5678 5678 5679 5679 5680 5680 5680 5680 5680 5680 5680 5679 5678 5677 5678 5678 5678 5678 5677 5678 5678
5692 5689 5688 5686 5686 5684 5684 5684 5684 5683 5683 5683 5682 5681 5680 5678 5677 5676 5675 5675 5675 5675 5675 5675 5674 5673 5673 5673 5673 5674 5674 5674 5674 5674 5674 5674 5675 5676 5676 5677 5677 5676 5675 5674 5674 5673 5672 5671 5672 5671 5671 5671 5671 5670
5679 5676 5675 5675 5675 5675 5674 5674 5674 5674 5675 5675 5674 5673 5672 5671 5671 5671 5670 5670 5669 5669 5669 5668 5668 5668 5669 5669 5669 5670 5671 5671 5671 5671 5671 5671 5671 5670 5671 5671 5671 5671 5670 5670 5669 5669 5669 5668 5668 5667 5667 5667 5666 5665
5667 5666 5665 5664 5664 5665 5666 5667 5667 5666 5667 5666 5666 5665 5664 5664 5665 5665 5665 5664 5664 5663 5663 5663 5663 5664 5665 5665 5666 5666 5667 5667 5667 5667 5667 5667 5667 5667 5667 5666 5666 5666 5666 5666 5665 5665 5664 5664 5664 5663 5663 5662 5662 5662
5658 5657 5657 5657 5658 5659 5661 5661 5661 5659 5658 5657 5657 5658 5659 5659 5659 5659 5659 5659 5659 5659 5659 5659 5660 5660 5661 5662 5662 5663 5664 5665 5664 5663 5663 5663 5663 5662 5661 5660 5661 5662 5662 5663 5662 5662 5661 5661 5661 5660 5660 5659 5658 5658
5652 5651 5651 5652 5653 5654 5656 5655 5655 5654 5654 5654 5654 5654 5654 5654 5654 5654 5655 5655 5655 5655 5655 5656 5657 5658 5658 5659 5659 5660 5661 5661 5660 5660 5660 5659 5658 5655 5652 5651 5654 5658 5660 5660 5659 5660 5659 5658 5658 5658 5658 5658 5657 5656
5649 5649 5649 5649 5650 5651 5651 5652 5652 5652 5652 5651 5651 5651 5651 5651 5651 5651 5652 5652 5652 5652 5653 5653 5654 5655 5656 5657 5657 5657 5658 5657 5657 5657 5657 5657 5656 5655 5653 5653 5655 5657 5657 5657 5657 5657 5657 5656 5656 5656 5655 5655 5655 5655
5645 5646 5647 5647 5648 5648 5649 5650 5650 5651 5650 5650 5649 5649 5648 5648 5648 5649 5649 5650 5650 5651 5651 5652 5652 5653 5654 5655 5655 5655 5654 5654 5654 5655 5656 5658 5658 5658 5658 5658 5658 5658 5658 5657 5656 5655 5654 5654 5653 5653 5652 5652 5652 5653
5643 5645 5645 5646 5646 5647 5648 5649 5650 5650 5649 5648 5648 5647 5646 5646 5646 5647 5648 5649 5650 5650 5651 5651 5652 5652 5652 5653 5654 5654 5655 5655 5657 5658 5659 5659 5660 5660 5660 5659 5658 5658 5656 5655 5654 5652 5651 5650 5650 5650 5650 5650 5651 5650
5643 5644 5644 5646 5647 5648 5649 5650 5650 5649 5649 5648 5648 5647 5646 5646 5647 5648 5649 5649 5650 5651 5651 5651 5651 5652 5652 5653 5654 5656 5657 5658 5659 5660 5661 5661 5661 5661 5660 5659 5658 5657 5655 5652 5651 5650 5649 5648 5649 5649 5649 5649 5648 5647
5642 5644 5646 5648 5649 5651 5652 5652 5652 5651 5651 5650 5650 5649 5649 5649 5649 5649 5650 5650 5650 5650 5651 5652 5652 5652 5653 5654 5656 5658 5659 5660 5661 5662 5663 5663 5662 5662 5660 5659 5657 5654 5651 5649 5648 5648 5648 5647 5647 5647 5647 5646 5645 5644
5646 5648 5649 5651 5652 5654 5655 5655 5654 5654 5653 5653 5652 5651 5651 5650 5650 5650 5650 5650 5650 5651 5651 5652 5653 5653 5654 5657 5658 5660 5661 5662 5662 5663 5663 5663 5662 5662 5660 5658 5655 5652 5650 5649 5647 5647 5646 5646 5645 5644 5644 5643 5641 5640
5651 5652 5653 5655 5656 5657 5657 5657 5657 5656 5656 5655 5654 5654 5653 5651 5651 5650 5650 5650 5651 5651 5652 5653 5654 5655 5657 5658 5660 5661 5662 5662 5662 5663 5663 5662 5662 5661 5659 5658 5655 5653 5650 5649 5647 5646 5645 5644 5643 5642 5641 5639 5637 5635
5654 5655 5657 5658 5659 5659 5659 5659 5659 5658 5658 5657 5656 5655 5655 5654 5652 5652 5651 5651 5652 5652 5653 5654 5656 5657 5658 5659 5660 5661 5662 5662 5663 5663 5662 5661 5660 5659 5658 5656 5653 5651 5649 5647 5646 5645 5643 5642 5641 5639 5637 5634 5631 5628
5657 5658 5659 5661 5661 5662 5662 5662 5661 5660 5659 5657 5656 5655 5655 5654 5654 5653 5652 5652 5653 5653 5653 5655 5657 5658 5659 5660 5661 5661 5662 5662 5662 5662 5661 5660 5659 5658 5656 5654 5651 5649 5648 5646 5645 5643 5641 5639 5636 5634 5631 5628 5624 5621